[[{"header":{"parameterUnit":"m.s-1","parameterCategory":1,"la1":30.2991,"la2":30.254,"lo1":-89.0895,"lo2":-89.0444,"dy":0.0017,"dx":0.0017,"nx":28,"ny":28,"refTime":"2024-07-22T09:00:00:Z","depth":0,"parameterNumber":2,"parameterNumberName":"U-component_of_WINDS"},"data":[0,0,0,0,0,0,0,0,0,0,0,0,0,0,0,0,0,0,0,0,0,0,0,0,0,0,0,0,0,0,0,0,0,0,0,0,0,0,0,0,0,0,0,0,0,0,0,0,0,0,0,0,0,0,0,0,0,0,3.2482,3.2482,0,3.2483,3.2483,3.2483,3.2428,3.2426,3.2425,3.2424,3.2424,3.2426,3.2427,0,0,0,0,0,0,0,0,0,0,0,0,0,3.2434,3.2436,3.2482,3.2482,3.2482,3.2483,3.2483,3.2483,3.2428,3.2426,3.2425,3.2423,3.2424,3.2425,3.2427,0,0,0,0,0,0,0,0,0,0,0,0,0,3.2447,3.2436,3.2482,3.2455,3.2453,3.2483,3.2483,3.2483,3.2428,3.2426,3.2424,3.2422,3.2423,3.2425,3.2427,3.2483,0,0,3.2434,3.2434,0,0,0,0,0,0,0,0,3.2446,3.2449,3.2459,3.2457,3.2454,3.2453,3.2466,3.2483,3.2429,3.2438,3.2424,3.2421,3.2436,3.2437,3.2441,3.2483,3.2483,3.2434,3.2435,3.2436,3.2436,0,0,0,0,0,0,0,3.2446,3.2448,3.2482,3.2459,3.2456,3.2443,3.2442,3.2469,3.2449,3.2437,3.2433,3.2434,3.2434,3.244,3.2441,3.2483,3.2434,3.2436,3.2437,3.2438,3.2569,3.2571,0,0,0,0,0,0,3.2448,3.2448,3.2482,3.2482,3.2445,3.2445,3.2445,3.2456,3.2448,3.2445,3.2435,3.2431,3.2437,3.2439,3.2441,3.2503,3.2436,3.2438,3.2439,3.2566,3.2569,3.2571,0,0,0,0,0,0,3.2448,3.2452,3.2482,3.2464,3.2467,3.2449,3.2461,3.2457,3.2462,3.2447,3.2443,3.2445,3.2435,3.2438,3.2472,3.2503,3.2439,3.2441,3.2564,3.2567,3.257,3.263,0,0,0,0,0,0,3.2446,3.2452,3.2473,3.2465,3.2468,3.2514,3.2463,3.2458,3.2466,3.246,3.2455,3.2452,3.2434,3.247,3.2475,3.2504,3.2442,3.2561,3.2565,3.2569,3.2625,3.2635,3.2644,0,0,0,0,0,3.2445,3.2491,3.2475,3.2479,3.2494,3.2516,3.2518,3.2496,3.2469,3.2489,3.2479,3.2452,3.2499,3.2474,3.2479,3.2509,3.2559,3.2564,3.2569,3.2621,3.2633,3.2644,0,0,0,0,0,0,3.2504,3.2489,3.2471,3.2516,3.2518,3.2507,3.2532,3.251,3.2519,3.2514,3.2486,3.2485,3.2524,3.2521,3.2492,3.2562,3.2524,3.253,3.2562,3.2574,3.2582,3.2581,3.2444,0,0,0,0,0,3.2522,3.2541,3.2527,3.2568,3.257,3.2551,3.256,3.2543,3.2544,3.2544,3.2537,3.2539,3.2553,3.2564,3.2577,3.2626,3.2622,3.2649,3.2658,3.2666,3.2671,3.2694,3.2705,3.2588,3.2588,3.2588,0,0,3.256,3.2554,3.2568,3.258,3.2579,3.2598,3.2552,3.2576,3.2589,3.2548,3.2579,3.2574,3.2574,3.2615,3.2633,3.2614,3.2703,3.2672,3.2679,3.2679,3.27,3.2711,3.2721,3.2592,3.2591,3.259,0,0,3.2637,3.2636,3.2668,3.2668,3.2668,3.2655,3.2663,3.2655,3.265,3.2681,3.2649,3.2666,3.2693,3.2693,3.2697,3.2774,3.2749,3.278,3.2826,3.2849,3.2858,3.2866,3.2891,3.29,3.2785,3.2785,3.2786,0,3.2684,3.2712,3.2688,3.2713,3.2718,3.2681,3.2713,3.2714,3.2718,3.2722,3.2701,3.2732,3.273,3.2769,3.2788,3.2793,3.28,3.2779,3.2859,3.2866,3.2873,3.2897,3.2906,3.2789,3.2789,3.2788,3.2788,0,3.2768,3.2788,3.2814,3.2817,3.2826,3.2855,3.2834,3.2846,3.2828,3.2818,3.2849,3.2845,3.2855,3.2864,3.2848,3.2901,3.2888,3.2864,3.2824,3.2888,3.2909,3.2919,3.2794,3.2793,3.2792,3.2791,0,0,3.2882,3.2871,3.288,3.288,3.2876,3.2891,3.2918,3.2927,3.2936,3.2941,3.2961,3.2984,3.296,3.2965,3.2948,3.2968,3.3026,3.294,3.294,3.2954,3.3081,3.3098,3.3109,3.301,3.3012,3.3013,3.308,0,3.2954,3.2997,3.2976,3.3022,3.3038,3.3004,3.3026,3.3026,3.3017,3.303,3.302,3.3035,3.3005,3.3007,3.3025,3.3015,3.3051,3.3011,3.3027,3.3028,3.3025,3.312,3.3138,3.3202,3.3089,3.309,3.3091,0,3.3045,3.3051,3.3098,3.3089,3.3095,3.3116,3.3121,3.3135,3.3134,3.3125,3.313,3.3108,3.3132,3.3096,3.3128,3.3101,3.3107,3.3103,3.3105,3.3103,3.3061,3.3118,3.3222,3.323,3.3105,3.3104,3.3103,0,3.3119,3.314,3.3169,3.3171,3.3162,3.3177,3.3174,3.3171,3.3177,3.3183,3.3186,3.3196,3.32,3.3207,3.3188,3.3164,3.3222,3.3184,3.3214,3.3215,3.3226,3.3225,3.3328,3.3235,3.3235,3.3235,3.3234,0,3.32,3.323,3.3202,3.322,3.3251,3.3227,3.3259,3.3252,3.325,3.3265,3.3237,3.3252,3.3228,3.324,3.3226,3.3253,3.3256,3.3249,3.3245,3.325,3.3251,3.3251,3.3245,3.3237,3.3237,3.3236,3.3236,0,3.3287,3.327,3.33,3.3289,3.3287,3.331,3.33,3.3316,3.3305,3.3325,3.3329,3.3312,3.3325,3.3307,3.332,3.331,3.3346,3.3337,3.3346,3.3342,3.3372,3.3368,3.3477,3.3489,3.3391,3.3392,3.3393,0,3.3339,3.336,3.3351,3.3359,3.3357,3.3371,3.3377,3.3355,3.3362,3.3362,3.3377,3.3388,3.3395,3.3419,3.3407,3.3416,3.3404,3.3442,3.3405,3.3409,3.3401,3.3399,3.3399,3.3448,3.345,3.345,3.3451,0,3.3431,3.3422,3.3431,3.3437,3.3445,3.3449,3.3451,3.3459,3.3436,3.3445,3.3458,3.3464,3.3475,3.3486,3.3492,3.3488,3.3465,3.3463,3.347,3.3474,3.3478,3.3473,3.3363,3.346,3.3459,3.3459,3.3458,3.3458,3.35,3.3516,3.3511,3.3522,3.3521,3.3524,3.3537,3.3527,3.3538,3.3544,3.3531,3.3547,3.3544,3.3549,3.3548,3.356,3.3544,3.3554,3.3557,3.3559,3.3562,3.3478,3.3562,3.3561,3.3561,3.3561,3.3561,0,3.3588,3.3583,3.3594,3.3596,3.3605,3.3583,3.3584,3.3592,3.3606,3.3605,3.3612,3.3626,3.3636,3.3626,3.3633,3.3645,3.3634,3.3647,3.3645,3.3644,3.3578,3.3569,3.3655,3.3655,3.3655,3.3655,3.3655,3.3655,3.3635,3.366,3.3649,3.3674,3.3669,3.3683,3.3685,3.3687,3.3685,3.3702,3.371,3.3703,3.3697,3.3704,3.3712,3.3709,3.3711,3.3728,3.372,3.3658,3.3649,3.364,3.3632,3.3729,3.3729,3.3785,3.3785,3.3786]},{"header":{"parameterUnit":"m.s-1","parameterCategory":1,"la1":30.2991,"la2":30.254,"lo1":-89.0895,"lo2":-89.0444,"dy":0.0017,"dx":0.0017,"nx":28,"ny":28,"refTime":"2024-07-22T09:00:00:Z","depth":0,"parameterNumber":3,"parameterNumberName":"V-component_of_WINDS"},"data":[0,0,0,0,0,0,0,0,0,0,0,0,0,0,0,0,0,0,0,0,0,0,0,0,0,0,0,0,0,0,0,0,0,0,0,0,0,0,0,0,0,0,0,0,0,0,0,0,0,0,0,0,0,0,0,0,0,0,-1.0709,-1.0709,0,-1.0785,-1.0785,-1.0786,-1.0798,-1.0797,-1.0796,-1.0796,-1.0876,-1.0879,-1.0881,0,0,0,0,0,0,0,0,0,0,0,0,0,-1.0576,-1.0579,-1.0709,-1.071,-1.071,-1.0784,-1.0785,-1.0787,-1.0798,-1.0797,-1.0796,-1.0795,-1.0875,-1.0878,-1.0882,0,0,0,0,0,0,0,0,0,0,0,0,0,-1.0641,-1.0579,-1.0708,-1.0725,-1.0727,-1.0784,-1.0786,-1.0787,-1.0798,-1.0797,-1.0796,-1.0795,-1.0874,-1.0878,-1.0882,-1.0929,0,0,-1.0895,-1.0897,0,0,0,0,0,0,0,0,-1.0637,-1.0646,-1.0722,-1.0724,-1.0727,-1.0781,-1.0768,-1.0834,-1.0798,-1.0771,-1.0796,-1.0794,-1.0845,-1.0852,-1.0868,-1.0932,-1.0936,-1.0895,-1.0898,-1.09,-1.0901,0,0,0,0,0,0,0,-1.0633,-1.0643,-1.0739,-1.0723,-1.0726,-1.073,-1.0738,-1.0781,-1.0813,-1.0773,-1.0774,-1.0783,-1.0846,-1.0864,-1.087,-1.0937,-1.0895,-1.0899,-1.0901,-1.0903,-1.1044,-1.1045,0,0,0,0,0,0,-1.0625,-1.0639,-1.0736,-1.0741,-1.0678,-1.0733,-1.0742,-1.0764,-1.0813,-1.0819,-1.0784,-1.0783,-1.0858,-1.0865,-1.0873,-1.0931,-1.0899,-1.0903,-1.0906,-1.1043,-1.1044,-1.1046,0,0,0,0,0,0,-1.0622,-1.0634,-1.0733,-1.069,-1.0703,-1.0736,-1.0761,-1.0766,-1.0784,-1.0821,-1.0827,-1.0796,-1.0857,-1.0867,-1.0915,-1.0934,-1.0905,-1.0909,-1.1041,-1.1043,-1.1045,-1.1047,0,0,0,0,0,0,-1.0618,-1.0632,-1.065,-1.0691,-1.0705,-1.0773,-1.0763,-1.0769,-1.0791,-1.0791,-1.0834,-1.084,-1.0857,-1.0908,-1.0919,-1.0939,-1.0912,-1.104,-1.1042,-1.1044,-1.1045,-1.1049,-1.1051,0,0,0,0,0,-1.0613,-1.0648,-1.065,-1.0662,-1.0728,-1.0774,-1.0782,-1.0801,-1.0792,-1.0811,-1.0834,-1.0838,-1.093,-1.0913,-1.0925,-1.0947,-1.1039,-1.1042,-1.1044,-1.1044,-1.1048,-1.1051,0,0,0,0,0,0,-1.0609,-1.0653,-1.0657,-1.0705,-1.0735,-1.0775,-1.0799,-1.0805,-1.0839,-1.0837,-1.086,-1.0869,-1.0916,-1.0936,-1.0916,-1.0995,-1.0984,-1.0989,-1.098,-1.0984,-1.0987,-1.0981,-1.0916,0,0,0,0,0,-1.0613,-1.0646,-1.0684,-1.0723,-1.0738,-1.0766,-1.0786,-1.0798,-1.0831,-1.0844,-1.0871,-1.0903,-1.094,-1.0963,-1.0998,-1.1049,-1.1058,-1.107,-1.1073,-1.1075,-1.1079,-1.1108,-1.1113,-1.1055,-1.1055,-1.1055,0,0,-1.0623,-1.0651,-1.0671,-1.0722,-1.0747,-1.0782,-1.0776,-1.0813,-1.0839,-1.085,-1.0896,-1.0917,-1.0955,-1.1004,-1.1027,-1.1022,-1.1098,-1.1079,-1.108,-1.1083,-1.1111,-1.1117,-1.1122,-1.1057,-1.1056,-1.1056,0,0,-1.0658,-1.0683,-1.0718,-1.0743,-1.0781,-1.0799,-1.0808,-1.0847,-1.0861,-1.0908,-1.0917,-1.0949,-1.1011,-1.1037,-1.1059,-1.1105,-1.111,-1.1116,-1.1132,-1.116,-1.1165,-1.1169,-1.1185,-1.1191,-1.1121,-1.1121,-1.1121,0,-1.0666,-1.0717,-1.0736,-1.0772,-1.0795,-1.0806,-1.0842,-1.0866,-1.0913,-1.0929,-1.0923,-1.1001,-1.1028,-1.1083,-1.1095,-1.1112,-1.1123,-1.1111,-1.1162,-1.1167,-1.1171,-1.1187,-1.1193,-1.1121,-1.1121,-1.1121,-1.1121,0,-1.0725,-1.076,-1.0784,-1.0829,-1.0855,-1.0891,-1.0916,-1.094,-1.095,-1.0969,-1.1017,-1.1049,-1.1091,-1.1105,-1.1116,-1.1163,-1.1159,-1.1157,-1.1147,-1.1177,-1.1192,-1.1198,-1.1122,-1.1121,-1.1121,-1.1121,0,0,-1.0758,-1.0813,-1.0822,-1.0842,-1.0885,-1.0913,-1.0951,-1.0991,-1.1011,-1.1044,-1.1076,-1.1129,-1.1128,-1.1152,-1.1166,-1.119,-1.1225,-1.1186,-1.1187,-1.1192,-1.128,-1.128,-1.1287,-1.1229,-1.123,-1.1231,-1.1276,0,-1.0798,-1.0863,-1.0882,-1.0937,-1.0971,-1.0982,-1.1015,-1.1045,-1.1065,-1.1097,-1.1119,-1.1155,-1.1151,-1.1166,-1.1191,-1.1215,-1.1243,-1.1213,-1.126,-1.1261,-1.1249,-1.1295,-1.1295,-1.1336,-1.1283,-1.1284,-1.1284,0,-1.0853,-1.0886,-1.0945,-1.0984,-1.0998,-1.1027,-1.1066,-1.1096,-1.1131,-1.1144,-1.1172,-1.1183,-1.1224,-1.1211,-1.1267,-1.1246,-1.1267,-1.1282,-1.1284,-1.1289,-1.1274,-1.1301,-1.135,-1.1356,-1.1294,-1.1293,-1.1293,0,-1.0872,-1.0931,-1.0974,-1.0991,-1.1038,-1.1057,-1.1078,-1.1112,-1.1135,-1.117,-1.1185,-1.1225,-1.1246,-1.1277,-1.1299,-1.1288,-1.1354,-1.1343,-1.1366,-1.1365,-1.1378,-1.1377,-1.1431,-1.1392,-1.1392,-1.1392,-1.1392,0,-1.0914,-1.095,-1.0983,-1.1009,-1.1049,-1.1071,-1.1111,-1.1132,-1.1162,-1.1193,-1.1206,-1.1236,-1.1264,-1.1297,-1.1315,-1.1359,-1.1369,-1.1381,-1.1385,-1.1379,-1.1378,-1.1393,-1.139,-1.1394,-1.1393,-1.1393,-1.1393,0,-1.0941,-1.0965,-1.1012,-1.1052,-1.1063,-1.1091,-1.1126,-1.1152,-1.1173,-1.1212,-1.1223,-1.1255,-1.1295,-1.1321,-1.1372,-1.1384,-1.1432,-1.1436,-1.142,-1.1422,-1.1443,-1.1441,-1.1509,-1.1519,-1.1473,-1.1474,-1.1474,0,-1.0966,-1.0994,-1.1037,-1.1058,-1.1078,-1.1113,-1.1137,-1.116,-1.1184,-1.1227,-1.1248,-1.1289,-1.1323,-1.1387,-1.1415,-1.1455,-1.1459,-1.148,-1.1465,-1.1459,-1.146,-1.1458,-1.1461,-1.1483,-1.1483,-1.1483,-1.1484,0,-1.1009,-1.1019,-1.1052,-1.109,-1.1118,-1.1149,-1.118,-1.1197,-1.1225,-1.1253,-1.1293,-1.1319,-1.1372,-1.1412,-1.1455,-1.1477,-1.1485,-1.1488,-1.1496,-1.149,-1.148,-1.1485,-1.1427,-1.1486,-1.1486,-1.1486,-1.1486,-1.1486,-1.1036,-1.1061,-1.1095,-1.1132,-1.1157,-1.1186,-1.1213,-1.1237,-1.1271,-1.1314,-1.1326,-1.1369,-1.1404,-1.1462,-1.1485,-1.152,-1.1517,-1.1527,-1.153,-1.1532,-1.1533,-1.1474,-1.1527,-1.1527,-1.1527,-1.1527,-1.1527,0,-1.1079,-1.1101,-1.1135,-1.1178,-1.1207,-1.1212,-1.1246,-1.1271,-1.1308,-1.134,-1.1373,-1.142,-1.146,-1.1492,-1.1533,-1.1555,-1.1559,-1.1565,-1.1563,-1.1568,-1.1533,-1.1522,-1.156,-1.156,-1.156,-1.156,-1.156,-1.156,-1.1104,-1.1147,-1.1162,-1.1217,-1.124,-1.1281,-1.1301,-1.1328,-1.1353,-1.1405,-1.1438,-1.1458,-1.1491,-1.1534,-1.1571,-1.158,-1.1595,-1.1599,-1.1608,-1.1574,-1.1571,-1.1567,-1.1557,-1.1602,-1.1602,-1.1641,-1.1641,-1.1641]}]]